[[{"header":{"parameterUnit":"m.s-1","parameterCategory":1,"la1":30.2991,"la2":30.254,"lo1":-89.0895,"lo2":-89.0444,"dy":0.0017,"dx":0.0017,"nx":28,"ny":28,"refTime":"2025-09-03T21:00:00:Z","depth":0,"parameterNumber":2,"parameterNumberName":"U-component_of_WINDS"},"data":[0,0,0,0,0,0,0,0,0,0,0,0,0,0,0,0,0,0,0,0,0,0,0,0,0,0,0,0,0,0,0,0,0,0,0,0,0,0,0,0,0,0,0,0,0,0,0,0,0,0,0,0,0,0,0,0,0,0,0.2357,0.2357,0,0.2385,0.2385,0.2385,0.2399,0.2399,0.2399,0.2399,0.2426,0.2427,0.2427,0,0,0,0,0,0,0,0,0,0,0,0,0,0.2313,0.2314,0.2357,0.2357,0.2357,0.2384,0.2385,0.2385,0.2399,0.2399,0.2399,0.2399,0.2426,0.2426,0.2427,0,0,0,0,0,0,0,0,0,0,0,0,0,0.2335,0.2314,0.2357,0.2368,0.2369,0.2384,0.2385,0.2385,0.2399,0.2399,0.2399,0.2399,0.2425,0.2426,0.2427,0.2434,0,0,0.2431,0.2431,0,0,0,0,0,0,0,0,0.2334,0.2337,0.2366,0.2367,0.2368,0.2388,0.2379,0.2401,0.2399,0.2388,0.2399,0.2399,0.2413,0.2415,0.242,0.2435,0.2436,0.2431,0.2431,0.2432,0.2432,0,0,0,0,0,0,0,0.2333,0.2336,0.2368,0.2366,0.2368,0.237,0.2373,0.2384,0.24,0.2389,0.239,0.2393,0.2414,0.2419,0.2421,0.2436,0.2431,0.2432,0.2432,0.2433,0.2456,0.2456,0,0,0,0,0,0,0.233,0.2335,0.2367,0.2369,0.2351,0.2371,0.2375,0.2382,0.24,0.2403,0.2393,0.2393,0.2418,0.242,0.2422,0.243,0.2432,0.2433,0.2433,0.2456,0.2456,0.2456,0,0,0,0,0,0,0.2329,0.2332,0.2366,0.2352,0.2356,0.2372,0.238,0.2382,0.2388,0.2403,0.2406,0.2395,0.2418,0.2421,0.2431,0.2431,0.2433,0.2434,0.2456,0.2456,0.2456,0.2446,0,0,0,0,0,0,0.2327,0.2332,0.2335,0.2352,0.2357,0.2374,0.238,0.2383,0.239,0.2391,0.2406,0.2409,0.2418,0.2429,0.2432,0.2433,0.2435,0.2456,0.2456,0.2456,0.2446,0.2446,0.2445,0,0,0,0,0,0.2326,0.2331,0.2335,0.2339,0.2361,0.2374,0.2377,0.2388,0.239,0.2393,0.2402,0.2408,0.2431,0.243,0.2433,0.2434,0.2456,0.2456,0.2456,0.2447,0.2446,0.2445,0,0,0,0,0,0,0.2314,0.2334,0.2338,0.235,0.236,0.2377,0.2381,0.2387,0.2397,0.2397,0.241,0.2413,0.2421,0.2429,0.2428,0.2441,0.2444,0.2444,0.2436,0.2435,0.2434,0.2432,0.2436,0,0,0,0,0,0.2313,0.2322,0.2339,0.2347,0.2352,0.2365,0.2371,0.2379,0.239,0.2394,0.2405,0.2415,0.2424,0.243,0.2439,0.2447,0.245,0.245,0.2449,0.2448,0.2449,0.2452,0.2452,0.2456,0.2456,0.2456,0,0,0.231,0.2322,0.2327,0.2345,0.2354,0.2362,0.2369,0.2378,0.2385,0.2396,0.2406,0.2413,0.2425,0.2434,0.2438,0.244,0.2448,0.2448,0.2448,0.2448,0.2452,0.2452,0.2452,0.2456,0.2456,0.2456,0,0,0.231,0.232,0.2328,0.2336,0.235,0.2359,0.2361,0.2376,0.2382,0.2392,0.24,0.2407,0.2423,0.2431,0.2437,0.2438,0.2444,0.2441,0.2437,0.2441,0.2441,0.244,0.244,0.244,0.2441,0.2441,0.2441,0,0.2305,0.2319,0.2331,0.2339,0.2346,0.2356,0.2364,0.2371,0.2387,0.2391,0.2393,0.2413,0.2422,0.2432,0.2432,0.2437,0.2438,0.2439,0.244,0.244,0.244,0.244,0.244,0.2441,0.2441,0.2441,0.2441,0,0.2311,0.2321,0.2325,0.2341,0.2348,0.2356,0.2367,0.2373,0.2379,0.2388,0.2397,0.2408,0.2419,0.2422,0.2429,0.2433,0.2434,0.2438,0.2441,0.2439,0.2439,0.2439,0.244,0.244,0.244,0.244,0,0,0.2305,0.2326,0.2328,0.2334,0.2349,0.2357,0.2364,0.2375,0.238,0.239,0.2396,0.2409,0.2412,0.2419,0.2426,0.2429,0.2428,0.2432,0.2433,0.2431,0.2433,0.243,0.243,0.2432,0.2432,0.2432,0.2432,0,0.2307,0.2322,0.2332,0.2342,0.2351,0.236,0.2366,0.2376,0.2383,0.2391,0.2399,0.2407,0.2412,0.2416,0.2419,0.2428,0.2429,0.2428,0.2437,0.2437,0.2434,0.243,0.2427,0.2426,0.2432,0.2432,0.2432,0,0.2311,0.2321,0.2332,0.2346,0.235,0.2355,0.2366,0.2373,0.2384,0.2389,0.2396,0.2403,0.241,0.2413,0.2422,0.2421,0.2426,0.243,0.243,0.2432,0.2434,0.243,0.2426,0.2426,0.2432,0.2432,0.2432,0,0.2305,0.2321,0.233,0.2335,0.2351,0.2355,0.2361,0.2372,0.2377,0.2386,0.239,0.2399,0.2405,0.2411,0.242,0.2421,0.2429,0.2432,0.2432,0.2432,0.2434,0.2433,0.2429,0.2437,0.2437,0.2437,0.2437,0,0.2305,0.2312,0.2327,0.2332,0.2339,0.235,0.2356,0.2364,0.2373,0.2379,0.2387,0.2393,0.2404,0.2411,0.2418,0.2424,0.2427,0.243,0.2432,0.243,0.2429,0.2432,0.2433,0.2437,0.2437,0.2437,0.2437,0,0.23,0.231,0.232,0.2334,0.2338,0.2342,0.2354,0.2359,0.2366,0.2374,0.2376,0.2388,0.2396,0.2405,0.2417,0.2421,0.2427,0.243,0.2423,0.2424,0.2424,0.2423,0.2422,0.2422,0.2429,0.2429,0.2429,0,0.23,0.2305,0.2319,0.2324,0.233,0.2338,0.2344,0.2354,0.236,0.2371,0.2375,0.2383,0.2391,0.2403,0.2412,0.242,0.2423,0.2422,0.2424,0.2421,0.2422,0.2422,0.2422,0.2421,0.2421,0.2421,0.2421,0,0.2298,0.2302,0.2311,0.232,0.2327,0.2335,0.2344,0.2347,0.2359,0.2364,0.2373,0.2378,0.2389,0.2398,0.2407,0.2413,0.2418,0.242,0.242,0.2418,0.2414,0.2415,0.2421,0.242,0.242,0.242,0.242,0.242,0.2295,0.2299,0.231,0.2318,0.2326,0.2333,0.2338,0.2346,0.2353,0.2363,0.2369,0.2377,0.2386,0.2399,0.2404,0.241,0.2412,0.2413,0.2413,0.2413,0.2412,0.2413,0.2412,0.2412,0.2412,0.2412,0.2412,0,0.2293,0.23,0.2308,0.2319,0.2325,0.233,0.2339,0.2344,0.2351,0.2359,0.2366,0.2375,0.2383,0.2392,0.24,0.2403,0.2406,0.2405,0.2405,0.2406,0.241,0.2408,0.2402,0.2402,0.2402,0.2402,0.2402,0.2402,0.2293,0.23,0.2306,0.2317,0.2324,0.2332,0.2336,0.2343,0.2349,0.2359,0.2365,0.2371,0.238,0.2388,0.2395,0.2397,0.24,0.2398,0.2401,0.2405,0.2405,0.2406,0.2405,0.2398,0.2398,0.2396,0.2396,0.2396]},{"header":{"parameterUnit":"m.s-1","parameterCategory":1,"la1":30.2991,"la2":30.254,"lo1":-89.0895,"lo2":-89.0444,"dy":0.0017,"dx":0.0017,"nx":28,"ny":28,"refTime":"2025-09-03T21:00:00:Z","depth":0,"parameterNumber":3,"parameterNumberName":"V-component_of_WINDS"},"data":[0,0,0,0,0,0,0,0,0,0,0,0,0,0,0,0,0,0,0,0,0,0,0,0,0,0,0,0,0,0,0,0,0,0,0,0,0,0,0,0,0,0,0,0,0,0,0,0,0,0,0,0,0,0,0,0,0,0,4.5343,4.5342,0,4.5289,4.5288,4.5287,4.5214,4.5213,4.5212,4.5211,4.5154,4.5154,4.5153,0,0,0,0,0,0,0,0,0,0,0,0,0,4.5383,4.5383,4.5343,4.5342,4.5342,4.5289,4.5288,4.5287,4.5215,4.5213,4.5212,4.521,4.5154,4.5154,4.5153,0,0,0,0,0,0,0,0,0,0,0,0,0,4.5351,4.5382,4.5343,4.5299,4.5295,4.5289,4.5288,4.5287,4.5215,4.5213,4.5211,4.521,4.5154,4.5154,4.5153,4.5186,0,0,4.5152,4.5151,0,0,0,0,0,0,0,0,4.5353,4.5349,4.5306,4.5302,4.5297,4.5256,4.5281,4.5253,4.5215,4.5245,4.5211,4.5209,4.519,4.5186,4.518,4.5184,4.5181,4.5152,4.5151,4.5151,4.5151,0,0,0,0,0,0,0,4.5355,4.5351,4.5321,4.5306,4.53,4.5282,4.5275,4.5276,4.5228,4.5242,4.5237,4.5232,4.5187,4.5181,4.5178,4.518,4.5152,4.5151,4.5151,4.515,4.5207,4.5209,0,0,0,0,0,0,4.5364,4.5354,4.5323,4.532,4.5321,4.5282,4.5275,4.5271,4.5228,4.522,4.5233,4.5228,4.5182,4.5179,4.5176,4.521,4.5151,4.515,4.515,4.5205,4.5207,4.5209,0,0,0,0,0,0,4.5365,4.5362,4.5325,4.5335,4.5329,4.5284,4.528,4.5271,4.5265,4.5221,4.5212,4.5236,4.5181,4.5176,4.5184,4.5207,4.515,4.515,4.5203,4.5206,4.5208,4.528,0,0,0,0,0,0,4.5367,4.5363,4.5375,4.5336,4.5329,4.5335,4.5282,4.5271,4.5264,4.5257,4.5221,4.5213,4.5179,4.5185,4.5183,4.5205,4.5149,4.52,4.5204,4.5207,4.5275,4.5285,4.5293,0,0,0,0,0,4.5368,4.5397,4.5376,4.5373,4.5343,4.5337,4.5332,4.5293,4.5266,4.5278,4.525,4.5214,4.5205,4.5187,4.5184,4.5206,4.5199,4.5203,4.5207,4.5271,4.5283,4.5293,0,0,0,0,0,0,4.544,4.5391,4.5367,4.5385,4.5365,4.5324,4.5338,4.5307,4.5294,4.5288,4.5239,4.5232,4.5245,4.5226,4.5206,4.5235,4.5197,4.52,4.5246,4.5257,4.5266,4.5269,4.5149,0,0,0,0,0,4.5458,4.5457,4.5414,4.5434,4.5425,4.5384,4.5379,4.535,4.5328,4.532,4.5292,4.5271,4.5264,4.5259,4.525,4.5273,4.5263,4.5287,4.5296,4.5303,4.5306,4.5316,4.5325,4.5223,4.5223,4.5223,0,0,4.5495,4.5468,4.547,4.5448,4.5429,4.5428,4.5377,4.5379,4.5377,4.532,4.5324,4.5304,4.5278,4.5293,4.5298,4.5277,4.5333,4.5308,4.5315,4.5314,4.5321,4.5331,4.5339,4.5226,4.5225,4.5225,0,0,4.5561,4.5541,4.5555,4.5538,4.551,4.5482,4.5486,4.545,4.5433,4.5438,4.5394,4.5392,4.538,4.5363,4.5353,4.5413,4.5379,4.5412,4.5457,4.5467,4.5475,4.5482,4.5502,4.551,4.5415,4.5416,4.5416,0,4.561,4.5607,4.5566,4.557,4.5561,4.5509,4.5522,4.5507,4.5479,4.5473,4.5451,4.5435,4.5414,4.5423,4.5438,4.5432,4.5433,4.5415,4.5477,4.5484,4.5489,4.5508,4.5516,4.542,4.5419,4.5419,4.5418,0,4.5668,4.5667,4.5681,4.5655,4.5648,4.5657,4.5616,4.5613,4.5586,4.556,4.5565,4.5538,4.5521,4.5522,4.5495,4.5527,4.5515,4.5486,4.5446,4.5504,4.552,4.5527,4.5425,4.5424,4.5423,4.5422,0,0,4.5777,4.5728,4.5733,4.572,4.5687,4.5685,4.5692,4.5676,4.5674,4.5657,4.566,4.5651,4.5624,4.5612,4.5583,4.5591,4.5639,4.5561,4.5559,4.5575,4.5672,4.5693,4.5702,4.5617,4.5619,4.562,4.5673,0,4.5835,4.5843,4.5806,4.5823,4.5821,4.5773,4.5778,4.5758,4.5734,4.5728,4.5702,4.5696,4.5661,4.5654,4.566,4.5632,4.5658,4.5628,4.5618,4.5619,4.5625,4.5711,4.5733,4.5785,4.568,4.5681,4.5682,0,4.5904,4.589,4.5908,4.5873,4.5871,4.5876,4.5859,4.5855,4.583,4.5812,4.58,4.5766,4.5769,4.5733,4.5735,4.5716,4.571,4.5696,4.5697,4.5693,4.5653,4.5708,4.5801,4.5809,4.5692,4.5691,4.569,0,4.598,4.5966,4.5974,4.5965,4.5925,4.593,4.5913,4.5887,4.588,4.5865,4.586,4.5845,4.5837,4.5826,4.5789,4.5766,4.5795,4.5756,4.5779,4.578,4.5786,4.5786,4.5878,4.5786,4.5786,4.5785,4.5785,0,4.6048,4.6061,4.6007,4.6012,4.6024,4.5982,4.5994,4.5973,4.5951,4.595,4.5907,4.5907,4.5859,4.5854,4.5825,4.5831,4.5828,4.5812,4.5804,4.5815,4.5817,4.581,4.5804,4.5787,4.5787,4.5787,4.5786,0,4.6134,4.6099,4.6105,4.6067,4.6057,4.6068,4.6035,4.6037,4.6011,4.6011,4.6009,4.5968,4.5959,4.5921,4.5904,4.5884,4.5899,4.5884,4.5907,4.5902,4.5927,4.5924,4.6016,4.6025,4.5929,4.593,4.593,0,4.6179,4.6187,4.6151,4.6147,4.6133,4.6128,4.6121,4.6079,4.6073,4.6047,4.6052,4.604,4.6028,4.6017,4.5985,4.5971,4.5955,4.5988,4.5952,4.5963,4.5953,4.5952,4.5952,4.5995,4.5996,4.5997,4.5998,0,4.6263,4.6245,4.6236,4.6222,4.6214,4.62,4.6184,4.6184,4.6137,4.6133,4.6124,4.6115,4.6097,4.6085,4.6066,4.6048,4.6015,4.601,4.6014,4.6025,4.6037,4.6029,4.5927,4.6008,4.6007,4.6006,4.6005,4.6005,4.6328,4.6333,4.6308,4.6299,4.6283,4.6268,4.6269,4.6243,4.6235,4.6217,4.6193,4.6187,4.6162,4.6133,4.6118,4.6112,4.6094,4.61,4.6102,4.6104,4.6109,4.604,4.6109,4.6108,4.6108,4.6108,4.6108,0,4.6408,4.639,4.6382,4.6361,4.6354,4.6325,4.6305,4.6301,4.6297,4.6277,4.6266,4.6255,4.6244,4.6211,4.6196,4.6198,4.6182,4.6195,4.6193,4.619,4.6127,4.6124,4.6208,4.6208,4.6208,4.6208,4.6208,4.6208,4.6449,4.6455,4.6434,4.6431,4.6412,4.6406,4.6398,4.6384,4.6368,4.6358,4.6348,4.6327,4.6302,4.6285,4.6273,4.6263,4.6259,4.6277,4.6262,4.6204,4.6194,4.6185,4.6182,4.6276,4.6276,4.6325,4.6325,4.6326]}]]